Location: Breungeshain
(50.5000°N, 9.2000°E)
Time: 09:49:40
(UTC+00:00)

ISS - Pass Details

Date: 21 May 2017
Orbit: 402 x 409 km, 51.6° (Epoch: 24 May)

Event Time Altitude Azimuth Distance (km) Brightness Sun altitude
Rises 02:32:05 0° 285° (WNW) 2,330 -0.3 -7.6°
Reaches altitude 10° 02:34:10 10° 283° (WNW) 1,467 -1.3 -7.4°
Maximum altitude 02:37:26 70° 200° (SSW) 433 -3.9 -7.0°
Drops below altitude 10° 02:40:42 10° 116° (ESE) 1,458 -0.7 -6.6°
Sets 02:42:46 0° 114° (ESE) 2,314 0.3 -6.4°
